Tracking 18980 objects as of 21-Feb-2018
HD Live streaming from Space Station
objects crossing your sky now

FENGYUN 1C DEB

Track FENGYUN 1C DEB now!
10-day predictions


NORAD ID: 30570
Int'l Code: 1999-025ALL
Perigee: 838.8 km
Apogee: 892.0 km
Inclination: 99.0 °
Period: 102.1 minutes
Semi major axis: 7236 km
RCS: 0.044 m2 (small)
Launch date: May 10, 1999
Source: People's Republic of China (PRC)
Launch site: Taiyaun Space Center, China (TSC)

Note: This is SATELLITE DEBRIS
aabbcc
Your satellite tracking list
Your tracking list is empty




NASA's NSSDC Master Catalog

Two Line Element Set (TLE):
1 30570U 99025ALL 18051.96508196 +.00000130 +00000-0 +98258-4 0  9999
2 30570 099.0290 079.1739 0036733 355.8024 067.8142 14.10317003567681
Source of the keplerian elements: AFSPC